星链-5502 (STARLINK-5502 )

导读

STARLINK-5502是美国SpaceX公司星链(Starlink)星座中的一颗低轨道通信卫星,于2023年2月17日发射入轨。星链项目旨在通过数千颗低轨卫星组网,为全球提供高速低延迟互联网服务,尤其覆盖偏远地区和特殊场景。 作为星链星座的一员,STARLINK-5502运行在约550公里的近地轨道,支持全球宽带接入,助力星座实现连续无缝覆盖。该卫星属于SpaceX大规模卫星互联网部署的一部分,推动了全球卫星通信网络的扩展。

基本信息
目录编号:
55644
目录名称:
STARLINK-5502
国际标识:
2023-021S
轨道中心:
EARTH
卫星名称:
星链-5502
卫星全名:
星链-5502 (STARLINK-5502 )
卫星状态:
在轨 (已飞行1214 天)
发射日期:
2023-02-17 UTC
国别 :
美国 (US)
星等 :
--
轨道信息
数据来源 国际轨道数据
星历时间: 2026-06-15T02:48:38+0800
9小时前
查看轨道信息
半长轴: 6950.171km
偏心率: 0.0002897
轨道倾角: 69.999°
近地点辐角 258.744°
升交点赤经 299.706°
平近点角 101.339°
近地点: 570.02km
远地点: 574.048km
周期: 96.107分钟
每日圈数: 14.983373
详细信息
固有亮度:
5
最大亮度:
2.5
卫星平台:
Starlink v1.5
覆盖范围:
全球
运营商:
太空探索技术公司
运营商所在国:
美国
制造商(研发单位):
太空探索技术公司
制造商所在国:
美国
使用方式:
暂无
卫星简介
星链(Starlink)计划是由太空探索技术公司(SpaceX)提出的一个巨型低轨卫星互联网星座项目,计划在2019年至2024年间在太空搭建由约1.2万颗卫星组成的“星链”网络,其中1584颗将部署在地球上空550千米处的近地轨道,并从2020年开始工作。该卫星仍在工作。
2D轨道图
3D轨道图
轨道高度分析图
轨道倾角分析图
轨道综合分析图
查看轨道综合分析图